KT5AL Weather Reports


time (UTC)temp
F
wind
direction
speed
knots
gust
knots
rain 1hr
in
rain 24hr
in
rain mn
in
humidity
%
barometer
mb
20210518214506 70 90 6.1 8.7 0.00 1.60 1.60 89 1004.3
20210518214004 70 67 7.0 7.8 0.00 1.60 1.60 88 1004.3
20210518211002 68 292 7.0 8.7 0.00 1.60 1.60 96 1005.3
20210518205507 66 67 8.7 12.2 0.00 1.60 1.60 99 1005.6
20210518204026 65 135 10.4 14.8 0.00 1.60 1.60 99 1006.0
20210518202505 66 157 7.0 8.7 0.00 1.59 1.59 100 1007.3
20210518202007 66 202 4.3 7.8 0.00 1.59 1.59 100 1007.3
20210518201005 65 112 11.3 16.5 0.00 1.59 1.59 99 1006.6
20210518195504 65 112 11.3 13.9 0.00 1.59 1.59 99 1007.3
20210518194503 65 90 6.1 9.6 0.00 1.59 1.59 100 1008.0
20210518194006 64 45 4.3 5.2 0.00 1.59 1.59 100 1008.0
20210518193504 64 67 6.1 7.8 0.00 1.59 1.59 100 1007.7
20210518192506 63 90 9.6 13.0 0.00 1.59 1.59 99 1008.0
20210518191006 64 112 6.1 7.0 0.00 1.59 1.59 100 1008.0
20210518190004 63 90 7.0 8.7 0.00 1.59 1.59 99 1008.0
20210518185010 63 67 6.1 7.8 0.00 1.59 1.59 99 1009.0
20210518184506 63 22 5.2 7.0 0.00 1.59 1.59 99 1009.4
20210518182505 63 22 5.2 7.0 0.00 1.59 1.59 100 1010.0
20210518182003 62 45 5.2 7.0 0.00 1.59 1.59 100 1010.0
20210518180004 61 360 3.5 4.3 0.00 1.59 1.59 100 1010.7
20210518175003 61 315 4.3 6.1 0.00 1.59 1.59 100 1010.7
20210518173508 61 292 7.0 8.7 0.00 1.56 1.56 100 1011.4
20210518171508 61 247 6.1 7.8 0.00 1.47 1.47 100 1011.4
20210518165508 61 247 6.1 8.7 0.00 1.36 1.36 100 1012.4
20210518164506 61 247 1.7 4.3 0.00 1.13 1.13 100 1011.0
20210518162005 62 247 7.0 8.7 0.00 0.98 0.98 100 1010.7
20210518161509 62 292 5.2 6.1 0.00 0.96 0.96 100 1010.4
20210518160506 62 337 4.3 5.2 0.00 0.94 0.94 100 1009.7
20210518160003 62 337 5.2 8.7 0.00 0.93 0.93 100 1009.7
20210518155506 62 337 5.2 7.8 0.00 0.92 0.92 100 1010.0
20210518155010 62 337 7.8 11.3 0.00 0.92 0.92 100 1010.0
20210518154506 62 337 5.2 7.8 0.00 0.90 0.90 100 1010.4
20210518154004 62 292 4.3 5.2 0.00 0.82 0.82 100 1010.4
20210518153028 62 292 0.0 0.0 0.00 0.58 0.58 100 1010.4
20210518152506 62 292 2.6 4.3 0.00 0.58 0.58 100 1009.7
20210518150506 62 270 7.0 8.7 0.00 0.51 0.51 100 1010.0
20210518145005 62 292 8.7 8.7 0.00 0.36 0.36 100 1010.0
20210518144508 62 292 6.1 7.0 0.00 0.33 0.33 100 1010.0
20210518144006 62 315 7.0 8.7 0.00 0.32 0.32 100 1010.0
20210518143510 62 292 5.2 6.1 0.00 0.31 0.31 100 1010.0
20210518143006 62 292 4.3 6.1 0.00 0.31 0.31 100 1010.0
20210518142503 62 292 7.8 8.7 0.00 0.31 0.31 100 1010.0
20210518142006 62 292 7.8 9.6 0.00 0.31 0.31 100 1010.0
20210518141005 62 292 7.0 7.0 0.00 0.30 0.30 100 1010.0
20210518140508 62 315 5.2 7.0 0.00 0.29 0.29 100 1009.7
20210518135007 62 337 4.3 5.2 0.00 0.30 0.29 100 1009.4
20210518134504 62 337 5.2 7.0 0.00 0.31 0.29 100 1009.0
20210518134007 62 337 6.1 7.0 0.00 0.31 0.29 100 1009.0
20210518133504 62 45 3.5 5.2 0.00 0.31 0.29 100 1009.0
20210518133008 62 360 5.2 6.1 0.00 0.31 0.29 100 1009.0
20210518132007 62 337 3.5 4.3 0.00 0.31 0.29 100 1008.7
20210518131503 62 337 4.3 5.2 0.00 0.32 0.29 100 1008.7
20210518131006 62 337 2.6 3.5 0.00 0.32 0.29 100 1008.7
20210518130504 62 337 6.1 8.7 0.00 0.32 0.29 100 1008.7
20210518130007 62 337 4.3 7.0 0.00 0.33 0.29 100 1008.7
20210518125505 62 360 5.2 7.0 0.00 0.34 0.29 100 1008.7
20210518124004 62 292 6.1 7.8 0.00 0.40 0.29 100 1008.7
20210518122005 62 292 7.0 8.7 0.00 0.45 0.29 100 1008.0
20210518121003 61 292 5.2 5.2 0.00 0.46 0.29 100 1008.7
20210518120506 61 292 6.1 7.8 0.00 0.46 0.29 100 1009.0
20210518120003 61 270 4.3 5.2 0.00 0.46 0.29 100 1009.0
20210518115507 62 247 6.1 7.0 0.00 0.46 0.29 100 1009.0
20210518114505 61 247 8.7 9.6 0.00 0.46 0.29 100 1009.0
20210518114009 61 247 6.1 7.8 0.00 0.46 0.29 100 1009.0
20210518113006 61 247 6.1 7.0 0.00 0.46 0.29 100 1008.7
20210518112504 61 247 5.2 7.0 0.00 0.46 0.29 100 1008.0
20210518111007 61 180 1.7 1.7 0.00 0.46 0.29 100 1007.7
20210518104503 61 67 0.0 0.9 0.00 0.46 0.29 100 1006.6
20210518104006 61 67 3.5 4.3 0.00 0.46 0.29 100 1006.6
20210518102013 62 112 4.3 5.2 0.00 0.46 0.29 100 1006.6
20210518101004 62 157 7.0 8.7 0.00 0.46 0.29 100 1006.0
20210518100504 62 112 9.6 13.0 0.00 0.46 0.29 100 1006.0
20210518100007 62 157 9.6 13.9 0.00 0.46 0.29 100 1006.0
20210518095504 62 112 12.2 16.5 0.00 0.47 0.29 99 1006.0
20210518095007 62 112 12.2 15.6 0.00 0.47 0.29 99 1006.0
20210518094504 62 112 10.4 12.2 0.00 0.47 0.29 99 1005.6
20210518094007 61 112 9.6 12.2 0.00 0.49 0.29 99 1005.6
20210518093505 61 112 9.6 12.2 0.00 0.49 0.29 99 1005.3
20210518092503 61 112 11.3 15.6 0.00 0.50 0.29 99 1004.9
20210518092006 61 112 13.0 16.5 0.00 0.51 0.29 99 1004.9
20210518090006 61 112 8.7 12.2 0.00 0.58 0.29 99 1005.3
20210518085503 61 67 5.2 6.1 0.00 0.58 0.29 99 1006.0
20210518085007 61 90 9.6 11.3 0.00 0.58 0.29 99 1006.0
20210518084505 62 292 0.0 0.9 0.00 0.59 0.29 99 1003.9
20210518083005 62 67 7.0 9.6 0.00 0.60 0.29 99 1006.3
20210518082508 62 112 5.2 7.0 0.00 0.60 0.29 99 1007.7
20210518081531 62 337 0.9 4.3 0.00 0.61 0.29 99 1008.3
20210518080004 62 292 5.2 6.1 0.00 0.61 0.29 98 1009.0
20210518075508 62 292 4.3 5.2 0.00 0.61 0.29 98 1010.0
20210518073509 63 292 8.7 10.4 0.00 0.59 0.27 97 1010.4
20210518073005 63 292 10.4 12.2 0.00 0.59 0.27 97 1010.4
20210518072508 63 292 10.4 13.0 0.00 0.59 0.27 97 1011.4
20210518072005 63 270 13.0 15.6 0.00 0.59 0.27 97 1011.4
20210518071508 63 270 12.2 16.5 0.00 0.59 0.27 96 1011.4
20210518071005 63 270 10.4 12.2 0.00 0.58 0.26 95 1011.4
20210518070508 63 270 14.8 17.4 0.00 0.58 0.26 95 1011.4
20210518065506 63 270 11.3 13.9 0.00 0.58 0.26 97 1010.4
20210518065003 63 292 14.8 17.4 0.00 0.57 0.25 96 1010.4
20210518064007 64 292 12.2 17.4 0.00 0.56 0.24 98 1010.7
20210518062506 65 292 16.5 19.1 0.00 0.53 0.21 98 1010.7
20210518062003 65 270 16.5 18.2 0.00 0.52 0.20 99 1010.7
20210518055504 65 270 18.2 22.6 0.00 0.51 0.19 98 1009.0
20210518055007 66 292 18.2 24.3 0.00 0.51 0.19 97 1009.0
20210518054006 66 270 21.7 27.8 0.00 0.48 0.16 96 1009.4
20210518052006 70 247 7.0 8.7 0.00 0.32 0.00 96 1008.3
20210518051510 70 247 7.0 8.7 0.00 0.32 0.00 96 1008.3
20210518050007 70 247 7.8 9.6 0.00 0.32 0.00 96 1008.0
20210518045504 70 247 7.0 7.8 0.00 0.32 0.32 96 1007.0
20210518044005 70 157 0.0 1.7 0.00 0.32 0.32 94 1006.6
20210518043005 70 112 0.9 2.6 0.00 0.32 0.32 94 1006.3
20210518042502 70 112 5.2 5.2 0.00 0.32 0.32 94 1006.3
20210518042006 70 90 4.3 6.1 0.00 0.32 0.32 94 1006.3
20210518041503 70 112 6.1 7.0 0.00 0.32 0.32 92 1006.6
20210518040509 70 157 3.5 4.3 0.00 0.32 0.32 91 1006.6
20210518033507 71 112 7.0 8.7 0.00 0.33 0.32 91 1006.0
20210518032508 71 112 8.7 10.4 0.00 0.46 0.32 91 1006.0
20210518031507 70 90 5.2 7.0 0.00 0.46 0.32 91 1006.0
20210518025512 70 112 2.6 3.5 0.00 0.46 0.32 90 1005.6
20210518025006 69 112 3.5 3.5 0.00 0.46 0.32 88 1005.6
20210518024005 70 112 3.5 4.3 0.00 0.46 0.32 89 1005.6
20210518022504 70 112 4.3 4.3 0.00 0.46 0.32 86 1005.3
20210518021505 70 112 4.3 5.2 0.00 0.46 0.32 86 1005.3
20210518020505 71 135 3.5 4.3 0.00 0.46 0.32 84 1005.3
20210518020008 71 157 3.5 5.2 0.00 0.46 0.32 83 1005.3
20210518015512 71 157 3.5 4.3 0.00 0.46 0.32 82 1004.9
20210518013007 72 135 3.5 4.3 0.00 0.46 0.32 80 1004.9
20210518012505 73 157 5.2 7.8 0.00 0.46 0.32 80 1004.6
20210518011935 74 157 7.0 10.4 0.00 0.46 0.32 78 1004.6
20210518005504 75 135 5.2 8.7 0.00 0.46 0.32 73 1003.6
20210518005006 75 135 8.7 11.3 0.00 0.46 0.32 73 1003.6
20210518004005 76 135 7.8 9.6 0.00 0.46 0.32 72 1003.6
20210518001505 76 112 13.9 16.5 0.00 0.46 0.32 71 1002.9
20210518001002 76 135 13.0 17.4 0.00 0.46 0.32 69 1002.9
20210517230507 80 112 8.7 10.4 0.00 0.46 0.32 59 1001.2
20210517225506 81 90 5.2 7.0 0.00 0.46 0.32 57 1000.9
20210517222003 80 67 5.2 6.1 0.00 0.46 0.32 57 1001.2
20210517221506 80 45 4.3 5.2 0.00 0.46 0.32 57 1001.6
20210517220505 80 90 5.2 7.0 0.00 0.46 0.32 56 1001.9